Regional Weather Roundup
Issued by NWS

Home | Current Version | Previous Version | Graphics & Text | Print | Product List | Glossary On
Versions: 1 2 3 4 5 6 7 8 9 10 11 12 13 14 15 16 17 18 19 20 21 22 23 24 25 26 27 28 29 30 31 32 33 34 35 36 37 38 39 40 41 42 43 44 45 46 47 48 49 50
064
ASUS45 KABQ 241301
RWRNM
NEW MEXICO REGIONAL WEATHER ROUNDUP
NATIONAL WEATHER SERVICE ALBUQUERQUE NM
700 AM MDT FRI MAR 24 2017

NOTE: "FAIR" MEANS FEW OR NO CLOUDS BELOW 12,000 FEET AGL WITH NO
       SIGNIFICANT WEATHER OR OBSTRUCTIONS TO VISION.

      THIS PRODUCT IS RELEASED AS TWO VERSIONS.  ONE VERSION NEAR
      THE TOP OF THE HOUR CONTAINING PRELIMINARY DATA FROM ALBUQUERQUE
      AND OTHER STATIONS.  A FINAL VERSION WITH ADDITIONAL DATA IS
      ISSUED ABOUT 10 MINUTES AFTER THE HOUR.

NMZ501-503-504-510>518-241400-
NORTHWEST PLATEAU/NORTHCENTRAL MOUNTAINS

CITY           SKY/WX    TMP DP  RH WIND       PRES   REMARKS
FARMINGTON     FAIR      40  27  59 W25G36    29.94R WCI  29
LOS ALAMOS     CLOUDY    36  31  81 N9        29.82R WCI  29
SANTA FE       CLOUDY    39  33  79 W10       29.80R WCI  32
TAOS             N/A     34  25  69 NW9       29.82R WCI  26

$$
NMZ402-403-502-505>509-241400-
WESTCENTRAL MOUNTAINS/SOUTHWEST MOUNTAINS

CITY           SKY/WX    TMP DP  RH WIND       PRES   REMARKS
GALLUP         FAIR      33  27  78 W10       30.08R WCI  25
GRANTS         FAIR      37  27  68 NW36G47   29.98R WCI  23
SILVER CITY    FAIR      39  28  64 NW29G36   30.03F WCI  28

$$
NMZ407-409-411-412-241400-
SOUTHERN DESERTS

CITY           SKY/WX    TMP DP  RH WIND       PRES   REMARKS
DEMING         FAIR      44  29  55 W14G26    30.05S
LAS CRUCES     FAIR      42  27  54 W17G23    30.06R
HOLLOMAN AFB   FAIR      44  27  51 SW8       30.03R
ALAMOGORDO     FAIR      45  27  49 W3        30.01R
T OR C         FAIR      48  22  35 NW16G41   29.98R

$$
NMZ519>523-241400-
CENTRAL VALLEYS/CENTRAL HIGHLANDS

CITY           SKY/WX    TMP DP  RH WIND       PRES   REMARKS
ALBUQUERQUE    MOCLDY    47  27  45 NW18G32   29.92R
DOUBLE EAGLE   MOCLDY    45  27  49 W29G46    29.90R
MORIARTY ARPT  MOCLDY    42  31  65 W32G39    29.82S
CLINES CORNERS MOCLDY    34  29  82 W40G51    29.78R WCI  18
BELEN          CLOUDY    46  26  45 W22G28    29.93R
SOCORRO          N/A     48  21  34 W38       29.84R

$$
NMZ524>526-539-540-241400-
SOUTHCENTRAL MOUNTAINS

CITY           SKY/WX    TMP DP  RH WIND       PRES   REMARKS
RUIDOSO        NOT AVBL

$$
NMZ527>531-241400-
NORTHEAST HIGHLANDS/NORTHEAST PLAINS

CITY           SKY/WX    TMP DP  RH WIND       PRES   REMARKS
LAS VEGAS      CLOUDY    38  25  59 NW9       29.69R WCI  31
RATON          LGT SNOW  35  31  85 N24G41    29.66R FOG     WCI  23
CLAYTON        FAIR      41  34  76 NW35G48   29.44R

$$
NMZ532>537-241400-
EASTCENTRAL PLAINS

CITY           SKY/WX    TMP DP  RH WIND       PRES   REMARKS
TUCUMCARI      LGT RAIN  47  39  74 W20       29.61R
CANNON AFB     MOCLDY    48  26  42 SW30G38   29.69R
CLOVIS AIRPORT FAIR      46  25  42 SW32G39   29.68R

$$
NMZ028-029-538-241400-
SOUTHEAST PLAINS

CITY           SKY/WX    TMP DP  RH WIND       PRES   REMARKS
ROSWELL        FAIR      50  23  34 SW15      29.82S
ARTESIA        FAIR      50  27  40 SW22G36   29.85R
CARLSBAD       FAIR      52  27  38 MISG      29.86R
HOBBS          CLEAR     48  21  34 SW17G24   29.87R


$$




USA.gov is the U.S. government's official web portal to all federal, state and local government web resources and services.